Find Local Weather

World > North America > United States > Michigan

Detroit, Michigan Regional Weather

Lat: 42.33N, Lon: 83.05W
Wx Zone: MIZ076
Feedback
Expires:201807200900;;758204
ASUS43 KDTX 200810
RWRMI 
MICHIGAN HOURLY REGIONAL WEATHER ROUNDUP
NATIONAL WEATHER SERVICE DETROIT/PONTIAC MI
400 AM EDT FRI JUL 20 2018

NOTE: "FAIR" INDICATES FEW OR NO CLOUDS BELOW 12,000 FEET WITH NO
SIGNIFICANT WEATHER AND/OR OBSTRUCTION TO VISIBILITY.


MIZ047>049-052>055-059>063-066>070-074>076-081>083-200900-
SOUTHEAST LOWER MICHIGAN
  
CITY           SKY/WX    TMP DP  RH WIND       PRES   REMARKS
ADRIAN         FAIR      65  60  84 S5        29.91F                  
ALMA           FAIR      64  59  85 S7        29.90F                  
ANN ARBOR      FAIR      58  57  97 CALM      29.92F                  
BAD AXE        FAIR      64  56  75 SE6       29.96S                  
CARO           FAIR      62  55  78 SE5       29.93F                  
DETROIT CITY   FAIR      69  64  84 SE3       29.93S                  
DETROIT        FAIR      69  62  78 E6        29.92F                  
FLINT          FAIR      62  59  90 SE6       29.92F                  
GROSSE ILE     FAIR      73  65  77 S6        29.91F                  
HILLSDALE      FAIR      64  59  82 SE5       29.90F                  
HOWELL         FAIR      65  60  86 E5        29.92F                  

CITY           SKY/WX    TMP DP  RH WIND       PRES   REMARKS
JACKSON        FAIR      67  63  87 E6        29.90F                  
LAMBERTVILLE   FAIR      63  60  90 CALM      29.91F                  
LANSING        FAIR      67  62  84 SE7       29.90F                  
LAPEER         FAIR      58  55  91 CALM      29.95S                  
MASON          FAIR      65  62  88 SE6       29.91S                  
MONROE         FAIR      70  61  73 CALM      29.90F                  
MT. CLEMENS    FAIR      69  66  93 E3        29.92F                  
PONTIAC        FAIR      62  60  93 E5        29.92F                  
PORT HOPE        N/A     66  59  78 S6        29.94F                  
PORT HURON     FAIR      63  57  82 E5        29.95S                  
TRI CITIES     FAIR      65  60  84 SE8       29.92F                  
MIDLAND        FAIR      66  58  74 SE6       29.90F                  
TROY           FAIR      68  62  83 CALM      29.95S                  
SAGINAW HB     FAIR      63  55  77 SE5       29.91F                  
$$

SKY/WX - Weather  TMP - Temperature  DP - Dewpoint  RH - Relative Humidity
WIND - Wind Direction/Speed PRES - Barometric Pressure